Location: Plainartige
(45.6866°N, 1.7993°E)
Time: 10:46:38
(UTC+00:00)

DIWATA 2B (PO-101) - Pass Details

Date: 05 July 2022
Orbit: 583 x 599 km, 98.0° (Epoch: 15 August)

Event Time Altitude Azimuth Distance (km) Brightness Sun altitude
Exits shadow 00:36:46 - 113° (ESE) 2,015 ? -20.9°
Reaches altitude 10° 00:37:01 10° 110° (ESE) 1,939 ? -20.9°
Maximum altitude 00:40:04 20° 64° (ENE) 1,414 ? -20.8°
Drops below altitude 10° 00:43:07 10° 17° (NNE) 1,949 ? -20.7°
Sets 00:45:45 0° 1° (N) 2,856 ? -20.6°
